Location: Ottawa
(45.4170°N, 75.7000°W)
Time: 17:28:01
(UTC-05:00)

Amateur Radio Satellites - All Passes

Search period start: 26 January 2015 16:58
Search period end: 27 January 2015 16:58
Location: Ottawa, 45.4170°N, 75.7000°W

Satellite Date Start Highest point End Downlink Frequencies (MHz)
Time Altitude Azimuth
CUSAT 1 26 Jan 16:59:49 17:04:25 19° 280° (W) 17:08:06 437.405
SO-50 26 Jan 17:11:18 17:13:12 12° 23° (NNE) 17:15:13 436.795
Cubesat XI-IV 26 Jan 17:19:48 17:25:06 78° 75° (ENE) 17:30:29 437.490
RS-15 26 Jan 17:21:05 17:26:23 13° 263° (W) 17:30:43 29.354- 29.394
PRISM 26 Jan 17:29:14 17:31:45 16° 91° (E) 17:34:24 437.425
O/OREOS (USA 219) 26 Jan 17:32:20 17:36:41 47° 300° (WNW) 17:41:05 437.305
MOZHAYETS 4 26 Jan 17:37:36 17:42:00 46° 289° (WNW) 17:46:21
CUTE-I 26 Jan 17:40:45 17:46:03 72° 257° (WSW) 17:51:25 437.470
CUBESAT XI-V 26 Jan 17:44:50 17:48:06 19° 90° (E) 17:51:31 437.345
HO-68 26 Jan 17:58:29 18:02:45 18° 51° (NE) 18:07:18 435.675
STRAND 1 26 Jan 18:15:02 18:19:21 27° 93° (E) 18:23:45 437.568
YUBILEINY 26 Jan 18:42:57 18:50:00 30° 83° (E) 18:57:17 435.215
SEEDS 26 Jan 18:43:03 18:44:20 11° 61° (ENE) 18:45:49 437.485
SO-50 26 Jan 18:50:28 18:55:07 40° 45° (NE) 18:59:47 436.795
Cubesat XI-IV 26 Jan 19:02:52 19:05:57 15° 273° (W) 19:08:48 437.490
PRISM 26 Jan 19:03:35 19:07:36 49° 288° (WNW) 19:11:36 437.425
BRITE-PL 26 Jan 19:12:08 19:16:46 39° 68° (ENE) 19:21:48 437.365/2234.400
COMPASS 1 26 Jan 19:12:09 19:15:03 19° 65° (ENE) 19:18:03 437.405
CANX-2 26 Jan 19:16:31 19:20:16 30° 69° (ENE) 19:24:03 2200.000
CUBESAT XI-V 26 Jan 19:21:21 19:25:54 50° 288° (WNW) 19:30:26 437.345
GOMX 1 26 Jan 19:22:52 19:27:26 36° 68° (ENE) 19:32:20 467.674
Oscar 11 26 Jan 19:33:29 19:35:54 15° 63° (ENE) 19:38:29 145.826/435.025
AAUSAT CUBESAT 2 26 Jan 19:39:51 19:43:32 30° 69° (ENE) 19:47:16 437.432
CUTE 1.7 + AOD 2 26 Jan 19:40:40 19:44:48 48° 73° (ENE) 19:48:58 437.475
HO-68 26 Jan 19:42:20 19:49:28 75° 70° (ENE) 19:56:38 435.675
DOVE 4 26 Jan 19:48:50 19:53:35 45° 70° (ENE) 19:58:37 437.250
DELFI C3 26 Jan 19:52:59 19:55:41 18° 65° (ENE) 19:58:29 145.870
STRAND 1 26 Jan 19:53:53 19:58:43 42° 292° (WNW) 20:03:32 437.568
CUBEBUG 2 26 Jan 19:54:31 19:57:49 20° 63° (ENE) 20:01:18 437.445
CINEMA 3 26 Jan 19:58:08 20:02:30 34° 68° (ENE) 20:07:03 145.822/145.860
UKube-1 26 Jan 20:06:25 20:09:32 20° 64° (ENE) 20:12:46 .
ZACube-1 26 Jan 20:14:56 20:18:19 21° 65° (ENE) 20:21:51 437.345
SEEDS 26 Jan 20:15:19 20:19:36 84° 255° (WSW) 20:23:54 437.485
DX 1 26 Jan 20:22:57 20:26:42 30° 67° (ENE) 20:30:32 434.975-435.025
FUNcube-1 26 Jan 20:27:24 20:31:14 27° 67° (ENE) 20:35:08 145.935
SO-50 26 Jan 20:31:12 20:35:38 33° 244° (WSW) 20:40:00 436.795
AISAT 26 Jan 20:34:40 20:37:26 17° 62° (ENE) 20:40:21 437.250
YUBILEINY 26 Jan 20:37:39 20:46:17 65° 284° (WNW) 20:54:57 435.215
UWE-3 26 Jan 20:39:32 20:43:55 42° 70° (ENE) 20:48:22 435.000/436.395/437.385
HUMSAT D 26 Jan 20:40:57 20:44:09 21° 65° (ENE) 20:47:28 437.325/437.525
50 SAT 26 Jan 20:44:37 20:47:12 17° 64° (ENE) 20:49:55 437.505
COMPASS 1 26 Jan 20:46:24 20:50:29 46° 261° (W) 20:54:35 437.405
BRITE-PL 26 Jan 20:51:03 20:55:26 29° 269° (W) 21:00:03 437.365/2234.400
CANX-2 26 Jan 20:52:30 20:56:13 27° 266° (W) 20:59:54 2200.000
GOMX 1 26 Jan 21:01:05 21:05:37 32° 267° (W) 21:10:20 467.674
VELOX 1 26 Jan 21:03:17 21:07:05 29° 67° (ENE) 21:10:59 145.980
Oscar 11 26 Jan 21:07:20 21:11:40 63° 259° (W) 21:16:00 145.826/435.025
AAUSAT CUBESAT 2 26 Jan 21:15:39 21:19:14 26° 266° (W) 21:22:47 437.432
CUTE 1.7 + AOD 2 26 Jan 21:18:10 21:21:04 17° 270° (W) 21:23:51 437.475
CUBEBUG 1 26 Jan 21:21:22 21:24:25 19° 64° (ENE) 21:27:36 437.445
DELFI C3 26 Jan 21:26:42 21:30:38 45° 261° (W) 21:34:36 145.870
DOVE 4 26 Jan 21:27:27 21:31:37 25° 269° (W) 21:35:50 437.250
CUBEBUG 2 26 Jan 21:29:30 21:34:09 56° 261° (W) 21:38:54 437.445
UNISAT 6 26 Jan 21:29:36 21:31:13 12° 86° (E) 21:33:02 437.425
HO-68 26 Jan 21:32:27 21:37:59 23° 270° (W) 21:43:17 435.675
CINEMA 3 26 Jan 21:35:17 21:39:42 33° 266° (W) 21:44:13 145.822/145.860
UKube-1 26 Jan 21:41:17 21:45:26 44° 261° (W) 21:49:38 .
QB50P1 26 Jan 21:46:57 21:47:20 10° 86° (E) 21:47:59 145.935-145.965
ZACube-1 26 Jan 21:49:58 21:54:25 47° 262° (W) 21:58:55 437.345
POLYITAN 1 26 Jan 21:58:06 22:00:23 14° 88° (E) 22:02:50 437.675
DX 1 26 Jan 21:59:08 22:02:58 29° 265° (W) 22:06:45 434.975-435.025
ESTCUBE 1 26 Jan 22:02:59 22:07:20 53° 72° (ENE) 22:11:44 437.505/2401.250
FUNcube-1 26 Jan 22:03:13 22:07:28 36° 264° (W) 22:11:43 145.935
ANTELSAT 26 Jan 22:03:41 22:07:29 27° 93° (E) 22:11:15 437.575/2403.000
TISAT 1 26 Jan 22:06:13 22:08:28 14° 62° (ENE) 22:10:52 437.305
AISAT 26 Jan 22:09:16 22:13:40 59° 259° (W) 22:18:07 437.250
BUGSAT 1 26 Jan 22:11:59 22:14:28 15° 89° (E) 22:17:06 437.445
TIGRISAT 26 Jan 22:13:00 22:17:04 32° 95° (E) 22:21:02 435.000
HUMSAT D 26 Jan 22:15:32 22:19:42 43° 262° (W) 22:23:53 437.325/437.525
AIST 1 26 Jan 22:16:13 22:20:23 45° 76° (ENE) 22:24:36
UWE-3 26 Jan 22:16:51 22:20:39 23° 268° (W) 22:24:23 435.000/436.395/437.385
50 SAT 26 Jan 22:17:57 22:22:00 51° 261° (W) 22:26:04 437.505
POPSAT HIP 1 26 Jan 22:18:50 22:22:16 23° 93° (E) 22:25:45 437.405
DUCHIFAT 1 26 Jan 22:23:07 22:26:41 25° 94° (E) 22:30:17 145.980
VELOX 1 26 Jan 22:39:45 22:43:40 30° 265° (W) 22:47:35 145.980
YUBILEINY 26 Jan 22:40:32 22:45:22 15° 309° (NW) 22:49:45 435.215
SPROUT 26 Jan 22:52:59 22:57:02 41° 71° (ENE) 23:01:08 437.525
CUBEBUG 1 26 Jan 22:56:19 23:00:31 47° 261° (W) 23:04:45 437.445
NANOSAT C BR1 26 Jan 22:56:35 23:00:50 57° 100° (E) 23:05:04 145.865
UNISAT 6 26 Jan 23:04:10 23:08:42 74° 285° (WNW) 23:13:04 437.425
BEESAT 26 Jan 23:05:35 23:07:13 12° 58° (ENE) 23:09:04 436.000
ITUPSAT 1 26 Jan 23:07:32 23:09:17 12° 58° (ENE) 23:11:16 437.325
ISS 26 Jan 23:07:32 23:10:44 50° 145° (SE) 23:13:57 145.825
QB50P2 26 Jan 23:09:13 23:13:34 80° 103° (ESE) 23:17:52 145.880/145.840
QB50P1 26 Jan 23:19:35 23:23:56 82° 285° (WNW) 23:28:13 145.935-145.965
POLYITAN 1 26 Jan 23:32:31 23:36:48 59° 287° (WNW) 23:41:01 437.675
TISAT 1 26 Jan 23:39:38 23:43:51 64° 259° (WSW) 23:48:06 437.305
ANTELSAT 26 Jan 23:40:18 23:44:22 33° 292° (WNW) 23:48:16 437.575/2403.000
ESTCUBE 1 26 Jan 23:41:36 23:44:37 17° 270° (W) 23:47:28 437.505/2401.250
BUGSAT 1 26 Jan 23:46:10 23:50:21 54° 288° (WNW) 23:54:33 437.445
TIGRISAT 26 Jan 23:49:53 23:53:45 27° 293° (WNW) 23:57:28 435.000
POPSAT HIP 1 26 Jan 23:54:19 23:58:18 36° 291° (WNW) 00:02:14 437.405
AIST 1 26 Jan 23:54:51 23:57:45 17° 273° (W) 00:00:31
DUCHIFAT 1 26 Jan 23:58:43 00:02:36 33° 291° (WNW) 00:06:26 145.980
KKS-1 27 Jan 00:12:15 00:12:58 10° 58° (ENE) 00:13:55 437.445
SWISSCUBE 27 Jan 00:23:21 00:28:03 63° 72° (ENE) 00:32:47 437.505
Oscar 19 27 Jan 00:24:23 00:27:20 16° 88° (E) 00:30:30 437.125/150
SPROUT 27 Jan 00:30:04 00:33:21 20° 269° (W) 00:36:33 437.525
NANOSAT C BR1 27 Jan 00:33:35 00:36:20 16° 297° (WNW) 00:38:56 145.865
BEESAT 27 Jan 00:39:38 00:44:24 84° 75° (ENE) 00:49:11 436.000
ITUPSAT 1 27 Jan 00:41:46 00:46:32 86° 72° (ENE) 00:51:20 437.325
GONETS M04 27 Jan 00:44:07 00:51:55 39° 87° (E) 00:59:51
ISS 27 Jan 00:44:14 00:47:20 37° 343° (NNW) 00:50:28 145.825
QB50P2 27 Jan 00:47:04 00:48:56 12° 299° (WNW) 00:50:37 145.880/145.840
Gurwin Techsat 1B 27 Jan 01:16:19 01:18:01 12° 85° (E) 01:20:03 435.225
M-CUBED/EXP-1 PRIME 27 Jan 01:18:58 01:22:16 25° 64° (ENE) 01:25:25 437.505
STARS 27 Jan 01:44:18 01:48:38 54° 72° (ENE) 01:53:01 437.465
KKS-1 27 Jan 01:44:27 01:48:56 80° 75° (ENE) 01:53:27 437.445
AUBIESAT-1 27 Jan 01:53:46 01:57:42 52° 68° (ENE) 02:01:21 437.475
O/OREOS (USA 219) 27 Jan 02:00:41 02:05:13 55° 62° (ENE) 02:09:45 437.305
Oscar 19 27 Jan 02:02:10 02:07:20 71° 287° (WNW) 02:12:27 437.125/150
SWISSCUBE 27 Jan 02:03:29 02:06:26 16° 271° (W) 02:09:12 437.505
BEESAT 2 27 Jan 02:05:01 02:07:32 16° 112° (ESE) 02:10:12 435.950
ITAMSAT 1 27 Jan 02:12:11 02:17:18 53° 100° (E) 02:22:25 435.822/435.867
BEESAT 3 27 Jan 02:20:53 02:24:17 26° 115° (ESE) 02:27:48 437.485
BEESAT 27 Jan 02:21:13 02:23:00 12° 274° (W) 02:24:31 436.000
ISS 27 Jan 02:21:32 02:24:25 27° 3° (N) 02:27:18 145.825
ITUPSAT 1 27 Jan 02:23:35 02:25:12 11° 274° (W) 02:26:33 437.325
AO-7 27 Jan 02:39:22 02:43:52 16° 85° (E) 02:48:50 29.400- 29.500
GONETS M04 27 Jan 02:40:07 02:48:38 51° 287° (WNW) 02:57:04
CUSAT 1 27 Jan 02:44:30 02:49:13 17° 79° (E) 02:54:28 437.405
M-CUBED/EXP-1 PRIME 27 Jan 02:53:33 02:57:13 30° 257° (WSW) 03:00:36 437.505
Gurwin Techsat 1B 27 Jan 02:53:34 02:58:56 86° 101° (E) 03:04:16 435.225
MOZHAYETS 4 27 Jan 03:05:21 03:09:04 25° 66° (ENE) 03:12:50
HORYU 2 27 Jan 03:22:29 03:26:53 56° 101° (E) 03:31:15 437.375
STARS 27 Jan 03:22:35 03:25:31 17° 270° (W) 03:28:18 437.465
AIST 2 27 Jan 03:23:29 03:27:30 43° 119° (ESE) 03:31:36 435.215
RS-15 27 Jan 03:24:17 03:30:18 18° 100° (E) 03:37:04 29.354- 29.394
KKS-1 27 Jan 03:24:48 03:26:17 11° 274° (W) 03:27:30 437.445
AUBIESAT-1 27 Jan 03:30:41 03:32:54 14° 263° (W) 03:34:53 437.475
O/OREOS (USA 219) 27 Jan 03:41:12 03:44:15 17° 259° (W) 03:47:10 437.305
BEESAT 2 27 Jan 03:41:16 03:45:21 59° 309° (NW) 03:49:31 435.950
DANDE 27 Jan 03:41:17 03:48:28 37° 87° (E) 03:56:14 436.750
Oscar 19 27 Jan 03:44:10 03:45:52 11° 304° (NW) 03:47:19 437.125/150
JAS-2 27 Jan 03:51:20 03:55:37 23° 92° (E) 04:00:25 435.910
ITAMSAT 1 27 Jan 03:52:23 03:56:30 23° 297° (WNW) 04:00:30 435.822/435.867
ISS 27 Jan 03:58:08 04:01:23 55° 23° (NNE) 04:04:39 145.825
BEESAT 3 27 Jan 03:58:26 04:02:19 37° 314° (NW) 04:06:13 437.485
PRISM 27 Jan 04:22:21 04:25:00 17° 64° (ENE) 04:27:45 437.425
CUSAT 1 27 Jan 04:23:01 04:31:06 74° 97° (E) 04:39:33 437.405
PCSat 27 Jan 04:27:34 04:32:33 40° 113° (ESE) 04:37:37 145.827
AO-7 27 Jan 04:29:52 04:38:16 77° 106° (ESE) 04:46:35 29.400- 29.500
Gurwin Techsat 1B 27 Jan 04:35:08 04:38:17 16° 302° (WNW) 04:41:15 435.225
MOZHAYETS 4 27 Jan 04:41:51 04:46:09 38° 263° (W) 04:50:26
GONETS M04 27 Jan 04:45:31 04:48:18 11° 314° (NW) 04:50:30
YUBILEINY 27 Jan 04:49:40 04:54:51 17° 53° (NE) 05:00:27 435.215
CUBESAT XI-V 27 Jan 04:50:34 04:54:13 24° 66° (ENE) 04:57:57 437.345
HORYU 2 27 Jan 05:00:12 05:03:10 17° 298° (WNW) 05:06:01 437.375
AIST 2 27 Jan 05:02:35 05:06:18 27° 318° (NW) 05:09:59 435.215
BEESAT 2 27 Jan 05:22:39 05:24:31 12° 330° (NNW) 05:26:17 435.950
DANDE 27 Jan 05:23:32 05:31:38 60° 287° (WNW) 05:40:13 436.750
RS-15 27 Jan 05:30:05 05:40:54 74° 120° (ESE) 05:51:53 29.354- 29.394
STRAND 1 27 Jan 05:32:55 05:37:47 48° 70° (ENE) 05:42:44 437.568
ISS 27 Jan 05:34:55 05:37:45 26° 221° (SW) 05:40:34 145.825
Cubesat XI-IV 27 Jan 05:35:24 05:39:50 26° 93° (E) 05:44:22 437.490
JAS-2 27 Jan 05:35:43 05:41:06 56° 289° (WNW) 05:47:03 435.910
CUTE-I 27 Jan 05:55:47 06:00:48 39° 97° (E) 06:05:49 437.470
PRISM 27 Jan 05:56:13 06:00:13 48° 260° (W) 06:04:13 437.425
CUSAT 1 27 Jan 06:07:44 06:14:58 31° 298° (WNW) 06:22:06 437.405
PCSat 27 Jan 06:11:01 06:16:03 37° 313° (NW) 06:21:04 145.827
AO-7 27 Jan 06:23:29 06:30:25 30° 307° (NW) 06:37:09 29.400- 29.500
CUBESAT XI-V 27 Jan 06:27:10 06:31:30 40° 263° (W) 06:35:51 437.345
YUBILEINY 27 Jan 06:44:53 06:53:40 73° 78° (ENE) 07:02:28 435.215
HO-68 27 Jan 07:11:33 07:12:53 11° 81° (E) 07:14:48 435.675
DANDE 27 Jan 07:11:57 07:17:11 16° 310° (NW) 07:22:03 436.750
STRAND 1 27 Jan 07:13:15 07:17:18 23° 268° (W) 07:21:16 437.568
Cubesat XI-IV 27 Jan 07:15:03 07:20:11 46° 291° (WNW) 07:25:17 437.490
BRITE-PL 27 Jan 07:16:30 07:18:56 13° 83° (E) 07:21:39 437.365/2234.400
GOMX 1 27 Jan 07:26:20 07:26:27 10° 81° (E) 07:26:56 467.674
CUTE-I 27 Jan 07:36:04 07:40:49 32° 295° (WNW) 07:45:29 437.470
RS-15 27 Jan 07:43:57 07:54:14 43° 327° (NNW) 08:04:41 29.354- 29.394
DOVE 4 27 Jan 07:48:28 07:50:08 12° 83° (E) 07:52:07 437.250
SEEDS 27 Jan 07:59:25 08:01:34 14° 88° (E) 08:03:53 437.485
PCSat 27 Jan 07:59:39 08:01:11 11° 337° (NNW) 08:02:33 145.827
COMPASS 1 27 Jan 08:28:31 08:31:52 24° 93° (E) 08:35:17 437.405
UNISAT 6 27 Jan 08:30:20 08:33:15 17° 62° (ENE) 08:36:19 437.425
CANX-2 27 Jan 08:35:15 08:39:18 42° 98° (E) 08:43:19 2200.000
QB50P1 27 Jan 08:41:51 08:43:21 12° 60° (ENE) 08:45:03 145.935-145.965
YUBILEINY 27 Jan 08:42:46 08:49:48 27° 278° (W) 08:56:33 435.215
BRITE-PL 27 Jan 08:52:38 08:58:24 85° 101° (ESE) 09:03:59 437.365/2234.400
Oscar 11 27 Jan 08:53:23 08:56:31 20° 91° (E) 08:59:45 145.826/435.025
POLYITAN 1 27 Jan 08:53:50 08:56:23 16° 63° (ENE) 08:59:07 437.675
HO-68 27 Jan 08:55:09 09:02:15 64° 102° (ESE) 09:09:22 435.675
AAUSAT CUBESAT 2 27 Jan 08:56:16 09:00:12 41° 97° (E) 09:04:09 437.432
CUTE 1.7 + AOD 2 27 Jan 08:59:39 09:03:54 73° 102° (ESE) 09:08:06 437.475
GOMX 1 27 Jan 09:00:11 09:05:42 73° 101° (E) 09:11:00 467.674
ANTELSAT 27 Jan 09:04:36 09:08:49 34° 68° (ENE) 09:13:04 437.575/2403.000
BUGSAT 1 27 Jan 09:05:04 09:07:22 15° 63° (ENE) 09:09:50 437.445
DELFI C3 27 Jan 09:05:25 09:08:27 21° 92° (E) 09:11:34 145.870
TIGRISAT 27 Jan 09:13:34 09:17:56 40° 70° (ENE) 09:22:21 435.000
POPSAT HIP 1 27 Jan 09:14:09 09:17:34 24° 66° (ENE) 09:21:05 437.405
DUCHIFAT 1 27 Jan 09:18:06 09:21:37 26° 67° (ENE) 09:25:12 145.980
CUBEBUG 2 27 Jan 09:19:19 09:23:17 28° 93° (E) 09:27:09 437.445
DOVE 4 27 Jan 09:23:32 09:28:53 86° 107° (ESE) 09:33:57 437.250
VERMONT LUNAR 27 Jan 09:25:30 09:27:39 16° 156° (SSE) 09:29:51 437.305
UKube-1 27 Jan 09:27:09 09:30:45 25° 94° (E) 09:34:25 .
CINEMA 3 27 Jan 09:27:54 09:32:46 57° 99° (E) 09:37:25 145.822/145.860
SEEDS 27 Jan 09:33:42 09:37:51 56° 287° (WNW) 09:41:56 437.485
ZACube-1 27 Jan 09:37:08 09:41:01 29° 94° (E) 09:44:51 437.345
DX 1 27 Jan 09:44:49 09:48:58 40° 98° (E) 09:53:07 434.975-435.025
FUNcube-1 27 Jan 09:49:43 09:53:54 38° 96° (E) 09:57:59 145.935
NANOSAT C BR1 27 Jan 09:51:21 09:55:32 57° 73° (ENE) 09:59:46 145.865
50 SAT 27 Jan 09:56:14 09:59:03 18° 91° (E) 10:01:57 437.505
HUMSAT D 27 Jan 09:58:17 10:01:52 26° 94° (E) 10:05:27 437.325/437.525
AISAT 27 Jan 09:58:43 10:02:16 23° 93° (E) 10:05:54 437.250
RS-15 27 Jan 10:01:18 10:10:24 28° 0° (N) 10:19:46 29.354- 29.394
UWE-3 27 Jan 10:03:55 10:08:29 66° 101° (E) 10:12:53 435.000/436.395/437.385
COMPASS 1 27 Jan 10:03:55 10:07:41 32° 291° (WNW) 10:11:23 437.405
QB50P2 27 Jan 10:04:14 10:08:30 79° 75° (ENE) 10:12:50 145.880/145.840
UNISAT 6 27 Jan 10:04:54 10:09:37 65° 259° (W) 10:14:19 437.425
AIST 2 27 Jan 10:06:07 10:07:58 13° 29° (NNE) 10:09:55 435.215
PHONESAT 2.4 27 Jan 10:10:18 10:12:51 18° 157° (SSE) 10:15:28 2401.200-2431.200
CANX-2 27 Jan 10:11:53 10:15:00 20° 295° (WNW) 10:18:00 2200.000
QB50P1 27 Jan 10:14:24 10:18:41 82° 257° (WSW) 10:23:01 145.935-145.965
BEESAT 2 27 Jan 10:21:29 10:24:58 25° 41° (NE) 10:28:26 435.950
POLYITAN 1 27 Jan 10:27:41 10:31:56 58° 259° (W) 10:36:13 437.675
VELOX 1 27 Jan 10:27:44 10:32:01 43° 98° (E) 10:36:19 145.980
Oscar 11 27 Jan 10:28:51 10:32:57 41° 289° (WNW) 10:36:59 145.826/435.025
BRITE-PL 27 Jan 10:32:29 10:36:14 18° 301° (WNW) 10:39:44 437.365/2234.400
AAUSAT CUBESAT 2 27 Jan 10:32:34 10:35:39 20° 295° (WNW) 10:38:37 437.432
CUTE 1.7 + AOD 2 27 Jan 10:37:22 10:39:20 13° 298° (WNW) 10:41:08 437.475
BEESAT 3 27 Jan 10:37:48 10:41:40 35° 46° (NE) 10:45:30 437.485
BUGSAT 1 27 Jan 10:38:26 10:42:28 57° 260° (W) 10:46:35 437.445
GOMX 1 27 Jan 10:39:25 10:43:15 19° 299° (WNW) 10:46:51 467.674
DELFI C3 27 Jan 10:40:08 10:43:51 35° 290° (WNW) 10:47:31 145.870
ANTELSAT 27 Jan 10:41:29 10:45:39 29° 266° (W) 10:49:45 437.575/2403.000
CUBEBUG 1 27 Jan 10:43:22 10:47:08 27° 94° (E) 10:50:58 437.445
HO-68 27 Jan 10:43:33 10:49:35 30° 302° (WNW) 10:55:29 435.675
SO-50 27 Jan 10:47:18 10:51:43 50° 120° (ESE) 10:56:18 436.795
AIST 1 27 Jan 10:48:47 10:52:10 24° 89° (E) 10:55:39
POPSAT HIP 1 27 Jan 10:49:24 10:53:20 35° 264° (W) 10:57:18 437.405
TIGRISAT 27 Jan 10:50:56 10:54:51 25° 267° (W) 10:58:42 435.000
GONETS M04 27 Jan 10:51:22 10:57:38 22° 58° (ENE) 11:04:12
DUCHIFAT 1 27 Jan 10:53:32 10:57:23 32° 264° (W) 11:01:15 145.980
CUBEBUG 2 27 Jan 10:55:50 11:00:03 33° 292° (WNW) 11:04:04 437.445
VERMONT LUNAR 27 Jan 11:02:03 11:05:14 33° 172° (S) 11:08:27 437.305
DOVE 4 27 Jan 11:02:52 11:05:56 15° 301° (WNW) 11:08:45 437.250
UKube-1 27 Jan 11:03:02 11:07:00 34° 292° (WNW) 11:10:55 .
CINEMA 3 27 Jan 11:06:00 11:09:34 20° 297° (WNW) 11:12:55 145.822/145.860
ZACube-1 27 Jan 11:13:27 11:17:24 30° 292° (WNW) 11:21:12 437.345
DX 1 27 Jan 11:21:32 11:25:02 23° 295° (WNW) 11:28:26 434.975-435.025
TISAT 1 27 Jan 11:23:23 11:26:15 18° 91° (E) 11:29:14 437.305
FUNcube-1 27 Jan 11:26:28 11:30:04 24° 294° (WNW) 11:33:30 145.935
NANOSAT C BR1 27 Jan 11:29:22 11:31:51 15° 271° (W) 11:34:12 145.865
ESTCUBE 1 27 Jan 11:30:13 11:34:46 87° 104° (ESE) 11:39:18 437.505/2401.250
50 SAT 27 Jan 11:30:33 11:34:24 40° 289° (WNW) 11:38:11 437.505
PCSat 27 Jan 11:30:47 11:33:30 14° 29° (NNE) 11:36:22 145.827
HUMSAT D 27 Jan 11:33:55 11:37:43 30° 291° (WNW) 11:41:23 437.325/437.525
AISAT 27 Jan 11:34:50 11:39:04 39° 290° (WNW) 11:43:16 437.250
UWE-3 27 Jan 11:41:48 11:44:32 16° 299° (WNW) 11:47:06 435.000/436.395/437.385
Oscar 19 27 Jan 11:42:50 11:47:15 30° 65° (ENE) 11:51:46 437.125/150
AIST 2 27 Jan 11:43:18 11:47:34 57° 50° (NE) 11:51:44 435.215
QB50P2 27 Jan 11:44:10 11:45:06 10° 274° (W) 11:45:47 145.880/145.840
PHONESAT 2.4 27 Jan 11:47:33 11:50:55 36° 174° (S) 11:54:18 2401.200-2431.200
ITAMSAT 1 27 Jan 11:55:45 11:58:40 16° 59° (ENE) 12:01:46 435.822/435.867
BEESAT 2 27 Jan 11:59:22 12:03:24 46° 240° (WSW) 12:07:21 435.950
VELOX 1 27 Jan 12:04:53 12:08:24 22° 295° (WNW) 12:11:47 145.980
SPROUT 27 Jan 12:13:21 12:17:41 60° 101° (E) 12:21:59 437.525
RS-15 27 Jan 12:16:05 12:26:35 43° 33° (NNE) 12:37:35 29.354- 29.394
BEESAT 3 27 Jan 12:16:08 12:19:45 28° 244° (WSW) 12:23:14 437.485
CUBEBUG 1 27 Jan 12:19:34 12:23:34 32° 291° (WNW) 12:27:30 437.445
SWISSCUBE 27 Jan 12:23:13 12:25:35 14° 88° (E) 12:28:10 437.505
AIST 1 27 Jan 12:25:55 12:29:44 31° 287° (WNW) 12:33:32
SO-50 27 Jan 12:28:29 12:32:31 28° 320° (NW) 12:36:38 436.795
Gurwin Techsat 1B 27 Jan 12:38:27 12:42:38 25° 63° (ENE) 12:46:57 435.225
BEESAT 27 Jan 12:38:48 12:42:02 18° 90° (E) 12:45:25 436.000
VERMONT LUNAR 27 Jan 12:39:47 12:42:59 33° 189° (S) 12:46:13 437.305
ITUPSAT 1 27 Jan 12:41:13 12:44:33 19° 91° (E) 12:48:01 437.325
GONETS M04 27 Jan 12:47:11 12:55:56 90° 255° (WSW) 13:04:39
TISAT 1 27 Jan 12:58:14 13:02:23 47° 289° (WNW) 13:06:30 437.305
ESTCUBE 1 27 Jan 13:09:09 13:11:04 12° 300° (WNW) 13:12:47 437.505/2401.250
PCSat 27 Jan 13:12:57 13:18:16 53° 52° (NE) 13:23:35 145.827
Oscar 19 27 Jan 13:21:36 13:26:30 40° 263° (W) 13:31:23 437.125/150
AIST 2 27 Jan 13:22:53 13:25:48 17° 248° (WSW) 13:28:34 435.215
CUSAT 1 27 Jan 13:23:07 13:25:39 12° 47° (NE) 13:28:16 437.405
PHONESAT 2.4 27 Jan 13:25:49 13:29:07 32° 191° (S) 13:32:26 2401.200-2431.200
ITAMSAT 1 27 Jan 13:32:24 13:37:34 83° 255° (WSW) 13:42:49 435.822/435.867
KKS-1 27 Jan 13:35:17 13:37:25 14° 88° (E) 13:39:47 437.445
AO-7 27 Jan 13:40:08 13:47:07 32° 55° (NE) 13:54:16 29.400- 29.500
SPROUT 27 Jan 13:50:41 13:53:22 16° 297° (WNW) 13:55:55 437.525
SWISSCUBE 27 Jan 13:59:18 14:04:04 72° 286° (WNW) 14:08:50 437.505
JAS-2 27 Jan 14:09:48 14:11:32 12° 57° (ENE) 14:13:30 435.910
BEESAT 27 Jan 14:15:37 14:20:18 54° 289° (WNW) 14:24:56 436.000
Gurwin Techsat 1B 27 Jan 14:17:12 14:22:21 50° 261° (W) 14:27:32 435.225
ITUPSAT 1 27 Jan 14:18:09 14:22:49 53° 289° (WNW) 14:27:28 437.325
VERMONT LUNAR 27 Jan 14:18:22 14:20:35 16° 204° (SSW) 14:22:45 437.305
HORYU 2 27 Jan 14:22:51 14:27:20 69° 74° (ENE) 14:31:50 437.375
DANDE 27 Jan 14:23:46 14:30:01 30° 61° (ENE) 14:35:06 436.750
RS-15 27 Jan 14:28:44 14:40:03 76° 239° (WSW) 14:51:51 29.354- 29.394
M-CUBED/EXP-1 PRIME 27 Jan 14:35:39 14:35:51 10° 95° (E) 14:36:15 437.505
GONETS M04 27 Jan 14:45:46 14:51:42 20° 282° (WNW) 14:57:13
PCSat 27 Jan 14:56:56 15:01:26 26° 250° (WSW) 15:05:47 145.827
CUSAT 1 27 Jan 15:03:58 15:10:46 64° 74° (ENE) 15:15:50 437.405
PHONESAT 2.4 27 Jan 15:05:04 15:07:07 14° 206° (SSW) 15:09:07 2401.200-2431.200
STARS 27 Jan 15:08:24 15:12:54 80° 103° (ESE) 15:17:21 437.465
AUBIESAT-1 27 Jan 15:08:27 15:11:09 23° 101° (E) 15:13:56 437.475
KKS-1 27 Jan 15:10:08 15:14:38 67° 286° (WNW) 15:19:05 437.445
ITAMSAT 1 27 Jan 15:16:35 15:18:02 11° 276° (W) 15:19:08 435.822/435.867
AO-7 27 Jan 15:31:01 15:39:23 71° 255° (WSW) 15:47:47 29.400- 29.500
SWISSCUBE 27 Jan 15:40:22 15:41:11 10° 303° (WNW) 15:41:45 437.505
CUTE-I 27 Jan 15:43:39 15:45:51 13° 56° (NE) 15:48:17 437.470
JAS-2 27 Jan 15:50:27 15:56:00 79° 75° (ENE) 16:01:14 435.910
HORYU 2 27 Jan 16:02:18 16:04:34 13° 272° (W) 16:06:38 437.375
DANDE 27 Jan 16:07:05 16:14:01 51° 268° (W) 16:19:15 436.750
M-CUBED/EXP-1 PRIME 27 Jan 16:08:02 16:11:16 49° 292° (WNW) 16:14:30 437.505
O/OREOS (USA 219) 27 Jan 16:15:12 16:19:24 41° 108° (ESE) 16:23:41 437.305
MOZHAYETS 4 27 Jan 16:34:35 16:38:55 42° 97° (E) 16:43:16
AUBIESAT-1 27 Jan 16:43:28 16:46:05 21° 297° (WNW) 16:48:40 437.475
STARS 27 Jan 16:46:43 16:48:50 13° 300° (WNW) 16:50:44 437.465
CUSAT 1 27 Jan 16:48:15 16:52:53 20° 280° (W) 16:56:35 437.405
